Welcome to the New NWS' Forecast!
Most changes are behind the scenes, but click here for differences you might notice.
Latest weather observations around

Craig Field / Selma (KSEM)

Using International System of Units (Switch to English Units)
Date/ Time (CDT) Wind (kph) Vis. (km) Weather Sky Cond. Temp (°C) Rel. Humidity Wind Chill (°C) Heat Index (°C) Pressure Precip. (cm)
Air Dwpt 6 hour Altimeter (hPa) Sea level (hPa) 1 hr 3 hr 6 hr
Max Min
Aug 15 22:35 SSE 11 16.09 Clear CLR 25 22     83%   26 1018        
Aug 15 22:15 S 11 16.09 Mostly Clear FEW060 25 22     83%   26 1018        
Aug 15 21:55 SSE 5 16.09 Partly Cloudy SCT055 25 22     83%   26 1018.3        
Aug 15 21:35 SSE 8 16.09 Partly Cloudy SCT050 SCT055 26 22     79%   28 1018        
Aug 15 21:15 SSE 13 16.09 Partly Cloudy FEW046 SCT055 26 22     79%   28 1018        
Aug 15 20:55 SE 8 16.09 Clear CLR 27 22     74%   29 1017.6        
Aug 15 20:35 SE 11 16.09 Mostly Clear FEW049 FEW060 FEW085 27 22     74%   29 1017.6        
Aug 15 20:15 SE 17 16.09 Mostly Cloudy SCT048 BKN060 28 23     74%   31 1017.3        
Aug 15 19:55 Calm 16.09 Clear CLR 28 25     84%   33 1016.9        
Aug 15 19:35 SSE 8 16.09 Clear CLR 28 25     84%   33 1016.9        
Aug 15 19:15 Calm 16.09 Clear CLR 30 25     75%   36 1016.6        
Aug 15 18:55 SSE 5 16.09 Mostly Clear FEW055 32 23     59%   37 1016.6        
Aug 15 18:35 S 8 16.09 Clear CLR 32 23     59%   37 1016.3        
Aug 15 18:15 SSW 5 16.09 Clear CLR 33 23     56%   38 1016.3        
Aug 15 17:55 SW 9 16.09 Clear CLR 33 22     53%   37 1016.3        
Aug 15 17:35 SSW 8 16.09 Clear CLR 33 22     53%   37 1016.3        
Aug 15 17:15 SSE 5 16.09 Mostly Clear FEW080 FEW110 33 22     53%   37 1016.3        
Aug 15 16:55 9 16.09 Mostly Cloudy SCT048 BKN060 BKN080 34 22     50%   38 1016.6        
Aug 15 16:35 Calm 16.09 Mostly Cloudy SCT046 BKN060 33 22     53%   37 1016.6        
Aug 15 16:15 Calm 16.09 Clear CLR 34 22     50%   38 1016.6        
Aug 15 15:55 S 9 16.09 Mostly Clear FEW050 FEW060 FEW070 34 22     50%   38 1016.6        
Aug 15 15:35 Calm 16.09 Partly Cloudy FEW045 SCT055 34 22     50%   38 1016.9        
Aug 15 15:15 9 16.09 Mostly Cloudy BKN044 BKN055 34 23     53%   39 1016.6        
Aug 15 14:55 9 16.09 Mostly Cloudy BKN041 BKN055 34 23     53%   39 1016.9        
Aug 15 14:35 Calm 16.09 Partly Cloudy FEW043 SCT055 33 23     56%   38 1017.3        
Aug 15 14:15 Calm 16.09 Partly Cloudy SCT042 SCT050 SCT055 33 23     56%   38 1017.3        
Aug 15 13:55 8 16.09 Mostly Clear FEW046 33 22     53%   37 1017.6        
Aug 15 13:35 SE 9 16.09 Clear   33 22     53%   37 1017.6        
Aug 15 13:15 Calm 16.09 Clear   32 22     56%   36 1018        
Aug 15 12:55 S 9 16.09 Clear   32 23     59%   37 1018.3        
Aug 15 12:35 S 9 16.09 Clear   32 23     59%   37 1018.3        
Aug 15 12:15 E 5 16.09 Clear   31 23     62%   35 1018.3        
Aug 15 11:55 5 16.09 Clear   31 23     62%   35 1018.3        
Aug 15 11:35 ESE 5 16.09 Clear   31 23     62%   35 1018.6        
Aug 15 11:15 8 16.09 Clear   30 23     66%   34 1018.6        
Aug 15 10:55 Calm 16.09 Clear   29 23     70%   33 1018.6        
Aug 15 10:35 Calm 16.09 Clear   28 23     74%   31 1018.6        
Aug 15 09:55 Calm 16.09 Clear CLR 27 23     79%   30 1018.6        
Aug 15 09:35 Calm 16.09 Clear CLR 26 23     84%   28 1018.6        
Aug 15 09:15 NE 5 16.09 Clear CLR 26 23     84%   28 1018.6        
Aug 15 08:55 Calm 16.09 Clear CLR 25 22     83%   26 1018.3        
Aug 15 08:35 Calm 16.09 Clear CLR 24 23     94%   25 1018.3        
Aug 15 08:15 Calm 16.09 Mostly Cloudy BKN003 24 23     94%   25 1018.3        
Aug 15 07:55 Calm 16.09 Mostly Cloudy BKN003 23 22     94%   24 1018.3        
Aug 15 07:35 Calm 14.48 Cloudy OVC002 22 22     100%   23 1018.3        
Aug 15 07:15 Calm 14.48 Mostly Cloudy BKN002 22 21     94%   23 1018        
Aug 15 06:55 Calm 1.61 Fog/Mist OVC002 21 21     100%     1018        
Aug 15 06:35 Calm 0.4 Fog OVC002 21 21     100%     1018        
Aug 15 06:15 Calm 0.4 Fog OVC002 21 21     100%     1017.6        
Aug 15 05:55 Calm 0.8 Fog/Mist OVC002 21 21     100%     1017.6        
Aug 15 05:35 Calm 0.4 Fog OVC002 21 21     100%     1017.3        
Aug 15 05:15 Calm 0.4 Fog OVC002 21 21     100%     1017.3        
Aug 15 04:55 Calm 1.21 Fog/Mist OVC002 21 21     100%     1016.9        
Aug 15 04:35 SE 8 0.4 Fog OVC002 22 21     94%   23 1016.9        
Aug 15 04:15 Calm 0.4 Fog OVC002 22 22     100%   23 1016.9        
Aug 15 03:55 Calm 0.4 Fog OVC002 22 22     100%   23 1016.6        
Aug 15 03:35 Calm 0.8 Fog/Mist OVC002 22 22     100%   23 1016.9        
Aug 15 03:15 Calm 1.21 Fog/Mist OVC002 22 22     100%   23 1016.9        
Aug 15 02:55 Calm 3.22 Fog/Mist OVC002 22 22     100%   23 1016.9        
Aug 15 02:35 Calm 1.61 Fog/Mist OVC002 22 22     100%   23 1016.9        
Aug 15 02:15 Calm 0.4 Fog OVC002 22 21     94%   23 1016.9        
Aug 15 01:55 Calm 0.4 Fog OVC003 22 22     100%   23 1016.9        
Aug 15 01:35 Calm 1.21 Fog/Mist OVC002 23 22     94%   24 1016.9        
Aug 15 01:15 Calm 4.83 Fog/Mist BKN002 23 22     94%   24 1016.9        
Aug 15 00:55 Calm 0.4 Fog OVC002 23 22     94%   24 1016.9        
Aug 15 00:35 Calm 1.21 Fog/Mist OVC002 23 22     94%   24 1017.3        
Aug 15 00:15 Calm 11.27 Mostly Cloudy BKN002 23 23     100%   24 1017.3        
Aug 14 23:55 Calm 14.48 Clear CLR 23 23     100%   24 1017.3        
Aug 14 23:35 Calm 12.87 Clear CLR 23 23     100%   24 1017.3        
Aug 14 23:15 Calm 6.44 Fog/Mist BKN003 23 23     100%   24 1017.3        
Aug 14 22:55 SE 5 8.05 Fog/Mist BKN003 23 22     94%   24 1017.3        
Aug 14 22:35 Calm 6.44 Fog/Mist FEW003 24 23     94%   25 1017.3        
Aug 14 22:15 Calm 3.22 Fog/Mist CLR 23 23     100%   24 1017.3        
Aug 14 21:55 Calm 2.82 Fog/Mist CLR 24 23     94%   25 1017.3        
Aug 14 21:35 Calm 14.48 Clear CLR 24 23     94%   25 1017.3        
Aug 14 21:15 Calm 16.09 Clear CLR 24 23     94%   25 1017.3        
Aug 14 20:55 Calm 9.66 Fog/Mist CLR 24 23     94%   25 1016.6        
Aug 14 20:35 Calm 16.09 Clear CLR 24 23     94%   25 1016.3        
Aug 14 20:15 Calm 16.09 Clear CLR 24 23     94%   25 1016.3        
Aug 14 19:55 Calm 16.09 Clear CLR 25 23     89%   26 1015.9        
Aug 14 19:35 Calm 16.09 Clear CLR 25 23     89%   26 1015.9        
Aug 14 19:15 Calm 16.09 Clear CLR 25 23     89%   26 1015.9        
Aug 14 18:55 ESE 8 16.09 Clear CLR 25 23     89%   26 1015.6        
Aug 14 18:35 Calm 16.09 Clear CLR 25 23     89%   26 1015.6        
Aug 14 18:15 Calm 16.09 Clear CLR 25 23     89%   26 1015.9        
Aug 14 17:55 Calm 16.09 Clear CLR 24 23     94%   25 1016.3        
Aug 14 17:35 SSW 9 16.09 Rain CLR 24 23     94%   25 1016.3        
Aug 14 17:15 SSW 9 6.44 Thunderstorms and Rain FEW003 FEW025 BKN034 24 23     94%   25 1016.3        
Aug 14 16:55 NE 13 4.83 Thunderstorms and Heavy Rain SCT003 BKN025 OVC036 24 23     94%   25 1016.6        
Aug 14 16:35 NE 9 0.4 Thunderstorms and Heavy Rain OVC003 23 21     89%   24 1016.6        
Aug 14 16:15   0.4 Thunderstorms and Heavy Rain OVC003 25 22     83%   26 1016.6        
Aug 14 15:55 ENE 24 6.44 Rain FEW004 OVC041 28 24     79%   32 1015.6        
Aug 14 15:35 E 13 16.09 Mostly Cloudy BKN042 BKN048 BKN060 31 23     62%   35 1015.2        
Aug 14 15:15 Calm 16.09 Partly Cloudy FEW039 SCT046 SCT050 32 22     56%   36 1015.2        
Aug 14 14:55 WSW 9 16.09 Mostly Cloudy SCT040 SCT046 BKN060 32 23     59%   37 1015.2        
Aug 14 14:35 8 16.09 Mostly Clear FEW039 33 23     56%   38 1015.2        
Aug 14 14:15 9 16.09 Clear CLR 32 23     59%   37 1015.6        
Aug 14 13:55 9 16.09 Clear CLR 33 23     56%   38 1015.9        
Aug 14 13:35 8 16.09 Clear CLR 31 24     66%   37 1016.3        
Aug 14 13:15 11 16.09 Clear CLR 31 23     62%   35 1016.6        
Aug 14 12:55 W 9 16.09 Clear CLR 32 23     59%   37 1016.6        
Aug 14 12:35 8 16.09 Clear CLR 31 23     62%   35 1016.9        
Aug 14 12:15 SW 11 16.09 Clear CLR 31 23     62%   35 1017.3        
Aug 14 11:55 WNW 9 16.09 Clear CLR 30 24     70%   35 1017.3        
Aug 14 11:35 Calm 16.09 Clear CLR 29 23     70%   33 1017.3        
Notice The following observation data may not be complete
Aug 14 11:15   16.09 Clear CLR          %              
Aug 14 10:55 8 16.09 Clear CLR 28 23     74%   31 1017.6        
Aug 14 10:35 SW 8 16.09 Clear CLR 28 23     74%   31 1017.6        
Aug 14 10:15 Calm 16.09 Clear CLR 27 23     79%   30 1017.6        
Aug 14 09:55 Calm 16.09 Clear CLR 27 23     79%   30 1017.6        
Notice The following observation data may not be complete
Aug 14 09:35   16.09 Clear CLR          %              
Aug 14 09:15 Calm 16.09 Clear CLR 26 23     84%   28 1017.3        
Aug 14 08:35 NW 9 16.09 Mostly Clear FEW007 FEW055 25 23     89%   26 1017.3        
Aug 14 08:15 NW 8 16.09 Mostly Cloudy FEW006 BKN055 24 23     94%   25 1017.3        
Aug 14 07:55 W 8 16.09 Mostly Cloudy FEW005 BKN050 24 23     94%   25 1016.9        
Aug 14 07:35 WNW 9 16.09 Mostly Cloudy BKN050 24 23     94%   25 1016.9        
Aug 14 07:15 W 8 16.09 Partly Cloudy SCT055 24 22     89%   25 1016.9        
Aug 14 06:55 W 8 16.09 Clear CLR 23 22     94%   24 1016.6        
Aug 14 06:35 Calm 16.09 Clear CLR 23 22     94%   24 1016.6        
Aug 14 06:15 SW 5 16.09 Clear CLR 23 22     94%   24 1016.6        
Aug 14 05:55 Calm 16.09 Clear CLR 23 22     94%   24 1016.3        
Aug 14 05:35 Calm 16.09 Clear CLR 22 22     100%   23 1016.3        
Aug 14 05:15 Calm 16.09 Clear CLR 22 21     94%   23 1015.9        
Aug 14 04:55 Calm 16.09 Clear CLR 23 22     94%   24 1015.9        
Aug 14 04:35 Calm 16.09 Clear CLR 23 22     94%   24 1015.9        
Aug 14 04:15 Calm 16.09 Clear CLR 22 21     94%   23 1015.9        
Aug 14 03:55 Calm 16.09 Clear CLR 22 21     94%   23 1015.9        
Aug 14 03:35 S 5 16.09 Clear CLR 23 21     89%   24 1015.9        
Aug 14 03:15 Calm 16.09 Clear CLR 24 22     89%   25 1015.9        
Aug 14 02:55 Calm 16.09 Clear CLR 23 22     94%   24 1015.9        
Aug 14 02:35 Calm 16.09 Clear CLR 23 22     94%   24 1015.9        
Aug 14 02:15 Calm 16.09 Clear CLR 22 21     94%   23 1015.9        
Aug 14 01:55 Calm 16.09 Clear CLR 22 21     94%   23 1016.3        
Aug 14 01:35 Calm 16.09 Clear CLR 23        %     1015.9        
Notice The following observation data may not be complete
Aug 14 01:15   16.09 Clear CLR          %              
Aug 14 00:55 Calm 16.09 Clear CLR 23 22     94%   24 1016.3        
Aug 14 00:35 Calm 16.09 Clear CLR 23 22     94%   24 1016.3        
Aug 14 00:15 Calm 16.09 Clear CLR 23 22     94%   24 1016.3        
Aug 13 23:55 Calm 16.09 Clear CLR 24 22     89%   25 1016.3        
Aug 13 23:35 Calm 16.09 Clear CLR 24 22     89%   25 1016.6        
Aug 13 23:15 Calm 16.09 Clear CLR 24 22     89%   25 1016.6        
Aug 13 22:55 Calm 16.09 Clear CLR 23 22     94%   24 1016.9        
Aug 13 22:35 Calm 16.09 Clear CLR 24 22     89%   25 1016.6        
Aug 13 22:15 Calm 16.09 Clear CLR 24 22     89%   25 1016.6        
Aug 13 21:55 Calm 16.09 Clear CLR 25 23     89%   26 1016.6        
Aug 13 21:35 Calm 16.09 Clear CLR 25 23     89%   26 1016.6        
Aug 13 21:15 Calm 16.09 Clear CLR 25 23     89%   26 1016.6        
Aug 13 20:55 SW 5 16.09 Clear CLR 25 23     89%   26 1016.3        
Aug 13 20:35 Calm 16.09 Clear CLR 25 23     89%   26 1015.9        
Aug 13 20:15 SSE 5 16.09 Clear CLR 26 22     79%   28 1015.9        
Aug 13 19:55 SW 5 16.09 Clear CLR 26 23     84%   28 1015.9        
Aug 13 19:35 W 8 16.09 Clear CLR 27 23     79%   30 1015.6        
Aug 13 19:15 WNW 11 16.09 Clear CLR 28 23     74%   31 1015.2        
Aug 13 18:55 WNW 9 16.09 Clear CLR 28 23     74%   31 1015.2        
Aug 13 18:35 WNW 11 16.09 Clear CLR 29 23     70%   33 1015.2        
Aug 13 18:15 WNW 11 16.09 Clear CLR 29 22     66%   32 1015.2        
Aug 13 17:55 W 8 16.09 Clear CLR 29 22     66%   32 1015.2        
Aug 13 17:35 WNW 5 16.09 Clear CLR 29 23     70%   33 1015.6        
Aug 13 16:55 WNW 8 16.09 Clear CLR 29 23     70%   33 1015.2        
Aug 13 16:35 WNW 13 16.09 Clear CLR 29 23     70%   33 1015.2        
Aug 13 16:15 WNW 13 16.09 Clear CLR 30 23     66%   34 1015.6        
Aug 13 15:55 WNW 8 16.09 Clear CLR 33 22     53%   37 1015.2        
Aug 13 15:35 Calm 16.09 Clear CLR 33 21     49%   36 1015.2        
Aug 13 15:15 W 9 16.09 Clear CLR 32 22     56%   36 1015.2        
Aug 13 14:55 W 8 16.09 Clear CLR 32 22     56%   36 1015.2        
Aug 13 14:35 9 16.09 Clear CLR 33 22     53%   37 1015.6        
Aug 13 13:55 W 9 16.09 Mostly Clear FEW035 32 24     63%   38 1016.6        
Aug 13 13:35 8 16.09 Clear CLR 33 23     56%   38 1016.9        
Aug 13 13:15 11 16.09 Clear CLR 33 23     56%   38 1017.3        
Aug 13 12:55 9 16.09 Clear CLR 32 22     56%   36 1017.6        
Aug 13 12:35 5 16.09 Clear CLR 32 22     56%   36 1017.6        
Aug 13 12:15 8 16.09 Clear CLR 32 21     52%   35 1018        
Aug 13 11:55 8 16.09 Clear CLR 31 21     55%   34 1018        
Aug 13 11:35 8 16.09 Clear CLR 31 22     59%   35 1018        
Aug 13 11:15 Calm 16.09 Clear CLR 30 22     62%   33 1018        
Aug 13 10:55 5 16.09 Clear CLR 30 23     66%   34 1018        
Aug 13 10:35 Calm 16.09 Clear CLR 29 23     70%   33 1018.3        
Aug 13 10:15 Calm 16.09 Clear CLR 29 22     66%   32 1018.3        
Aug 13 09:55 Calm 16.09 Clear CLR 28 22     70%   31 1018.3        
Aug 13 09:35 Calm 16.09 Clear CLR 27 22     74%   29 1018.3        
Aug 13 09:15 Calm 16.09 Clear CLR 26 22     79%   28 1018.3        
Aug 13 08:35 Calm 16.09 Clear CLR 25 22     83%   26 1018.3        
Aug 13 07:35 Calm 16.09 Clear CLR 23 22     94%   24 1018        
Aug 13 06:55 Calm 16.09 Clear CLR 22 21     94%   23 1017.6        
Aug 13 06:35 Calm 16.09 Clear CLR 22 21     94%   23 1017.3        
Aug 13 06:15 Calm 16.09 Clear CLR 22 21     94%   23 1016.9        
Aug 13 05:55 Calm 16.09 Clear CLR 22 21     94%   23 1016.9        
Aug 13 03:15 Calm 16.09 Clear CLR 22 21     94%   23 1016.9        
Aug 13 02:35 Calm 16.09 Clear CLR 22 21     94%   23 1017.3        
Aug 13 02:15 Calm 16.09 Clear CLR 22 21     94%   23 1017.3        
Aug 13 01:55 Calm 16.09 Clear CLR 22 21     94%   23 1017.6        
Aug 13 01:35 Calm 16.09 Clear CLR 22 21     94%   23 1017.6        
Aug 13 01:15 Calm 16.09 Clear CLR 22 21     94%   23 1017.6        
Aug 13 00:55 Calm 16.09 Clear CLR 23 21     89%   24 1017.6        
Aug 13 00:15 Calm 16.09 Clear CLR 23 22     94%   24 1018        
Aug 12 23:35 Calm 16.09 Clear CLR 24 22     89%   25 1018        
Aug 12 23:15 Calm 16.09 Clear CLR 24 22     89%   25 1018        
Aug 12 22:55 Calm 16.09 Clear CLR 24 22     89%   25 1018        
Aug 12 22:35 Calm 16.09 Clear CLR 24 22     89%   25 1018.3        
Aug 12 22:15 Calm 16.09 Clear CLR 25 22     83%   26 1018.3        
Aug 12 21:35 Calm 16.09 Clear CLR 25 22     83%   26 1018        
Aug 12 21:15 Calm 16.09 Clear CLR 25 22     83%   26 1018        
Aug 12 20:55 Calm 16.09 Clear CLR 25 22     83%   26 1017.3        
Aug 12 20:35 Calm 16.09 Clear CLR 25 22     83%   26 1016.9        
May 15 07:15 E 9 16.09 Clear CLR 21 18     83%     1014.9        
May 14 21:35 SSE 5 16.09 Clear CLR 25 19     69%   25 1013.2        
May 14 10:35 NE 13 16.09 Clear CLR 31 16     40%   31 1016.6        
May 14 08:15 N 8 16.09 Clear CLR 25 17     61%   25 1016.9        
May 14 07:55 N 8 16.09 Clear CLR 24 18     69%   24 1016.6        
Notice The following observation data may not be complete
May 14 05:15   16.09 Clear CLR          %              
Notice The following observation data may not be complete
May 13 20:15   16.09 Clear CLR          %              
May 13 16:15 NNE 8 16.09 Mostly Clear FEW075 34 13     28%   33 1016.6        
May 13 13:35 N 15 16.09 Mostly Clear FEW065 33 14     32%   32 1018.6        
May 13 11:55 9 16.09 Clear   32 14     34%   31 1019.7        
May 13 06:35 Calm 16.09 Clear CLR 16 14     88%     1019.3        
Notice The following observation data may not be complete
May 13 05:15   16.09 Clear CLR          %              
May 13 00:15 Calm 16.09 Clear CLR 19 17     88%     1018.6        
May 12 10:15 Calm 16.09 Clear CLR 28 16     48%   28 1021.3        
Notice The following observation data may not be complete
May 12 08:55 Calm 16.09 Clear CLR   16      %     1021.7        
May 12 08:35 Calm 16.09 Clear CLR 24 15     57%   24 1021.7        
May 12 01:15 Calm 16.09 Clear CLR 17 14     83%     1018.6        
May 11 21:55 Calm 16.09 Clear CLR 20 17     83%     1018.6        
May 11 19:35 Calm 16.09 Mostly Clear FEW080 26 17     58%   26 1017.3        
May 11 15:55 S 18 16.09 Clear CLR 33 12     28%   32 1017.3        
May 11 11:35 SW 13 16.09 Clear CLR 29        %     1020.7        
Jun 12 07:35 ESE 9 16.09 Clear CLR 25 22     83%   26 1020.7        
Jun 11 21:15 Calm 16.09 Clear   25 23     89%   26 1019.3        
Notice The following observation data may not be complete
Jun 11 20:35   16.09 Cloudy FEW055 OVC065          %              
Jun 11 17:35 SSE 9 16.09 Light Rain SCT032 BKN050 BKN065 23 21     89%   24 1017.6        
Notice The following observation data may not be complete
Jun 11 17:15 SE 22 4.83 Clear     21      %     1018.3        
Jun 11 14:55 E 15 16.09 Mostly Clear FEW047 FEW060 33 20     46%   35 1018.3        
Jun 11 02:35 Calm 16.09 Mostly Clear FEW055 20 18     88%     1017.6        
Jun 10 23:35 Calm 16.09 Clear CLR 21 18     83%     1018        
Jun 10 12:55 SE 15 16.09 Mostly Cloudy FEW055 BKN080 30 15     40%   30 1018        
Jun 09 22:55 Calm 16.09 Mostly Cloudy BKN060 BKN070 20 18     88%     1015.2        
Jun 09 16:35 W 13 16.09 Clear CLR 30 14     38%   29 1013.2        
Notice The following observation data may not be complete
Jun 09 12:35   16.09 Partly Cloudy SCT055          %              
Jun 08 08:35 Calm 16.09 Clear CLR 21 15     69%     1013.2        
Jun 07 22:15 N 11 16.09 Mostly Cloudy BKN070 BKN080 23 14     57%   23 1010.8        
Jun 07 20:15 NNE 8 16.09 Mostly Cloudy BKN060 BKN070 25 17     61%   25 1009.5        
Jun 07 19:15 NNE 17 16.09 Mostly Clear FEW080 27 15     48%   27 1009.2        
Notice The following observation data may not be complete
Jun 07 14:35   16.09 Mostly Clear FEW050 FEW055          %              
Jun 07 12:35 N 18 16.09 Mostly Cloudy BKN037 28 19     58%   29 1008.1        
Jun 07 11:55 N 13 16.09 Partly Cloudy SCT032 SCT037 28 19     58%   29 1008.1        
Jun 07 09:35 NNE 13 16.09 Clear CLR 25 18     65%   25 1008.5        
Notice The following observation data may not be complete
Jun 06 09:15   16.09 Cloudy OVC005          %              
Jun 05 20:15 E 11 16.09 Cloudy BKN004 BKN080 OVC090 23 22     94%   24 1008.8